Theta_e
307 308 309 310 311 313 315 317 319 318 319 319 320 320 320 318 317 315 312 311 310 310
304 304 305 306 307 307 309 308 308 311 311 313 314 315 315 315 315 313 312 311 310 310
301 301 302 302 301 302 303 304 305 305 306 307 308 310 311 311 312 312 312 312 310 309
299 299 299 299 299 298 299 299 300 301 302 303 304 305 306 307 308 308 308 309 308 307
297 297 297 296 296 296 296 296 296 297 298 299 300 301 301 302 303 304 303 304 304 304
294 294 294 293 293 293 293 294 295 294 294 295 296 297 298 299 300 301 302 302 300 300
293 292 292 292 292 292 292 292 293 293 293 294 294 294 295 296 297 298 298 299 299 298
291 291 291 290 290 290 290 290 290 290 291 292 292 292 292 292 293 293 293 294 294 295
289 288 289 288 287 288 288 288 289 289 289 289 290 290 290 290 291 290 290 290 291 292
287 287 287 286 286 286 287 287 286 287 287 287 289 288 289 289 289 289 289 289 289 289
286 285 285 285 285 285 286 285 286 286 286 286 286 287 288 288 288 289 289 290 288 288
284 283 283 282 283 284 284 284 285 285 285 284 285 286 287 287 287 287 287 288 289 289
282 281 280 281 281 283 283 282 283 283 284 284 284 286 286 286 286 284 285 287 287 286
280 280 281 282 282 281 280 280 281 281 283 284 285 284 285 285 285 284 284 284 284 286
Wind_Speed
9 5 5 5 5 4 5 6 7 7 8 8 8 8 7 6 7 9 10 14 11 10
9 9 7 8 6 5 6 6 8 8 9 10 11 12 11 7 9 7 9 10 12 11
9 9 8 8 9 9 8 9 8 8 8 9 10 10 11 10 12 11 9 9 11 11
9 9 8 8 9 9 9 10 10 9 10 10 10 10 10 12 13 14 14 12 12 13
10 10 10 10 10 10 10 9 10 10 10 10 10 11 12 13 12 14 14 15 15 17
9 9 9 9 10 9 10 10 9 8 9 10 10 11 11 13 14 14 15 14 13 14
8 8 8 8 9 10 9 10 10 10 10 10 10 11 11 12 13 14 13 14 14 14
8 8 9 9 9 9 9 9 10 11 11 11 10 8 12 13 13 14 15 13 13 15
6 7 7 8 9 10 9 10 10 10 10 12 9 13 17 14 11 13 14 15 13 12
6 8 9 10 10 10 11 11 11 11 12 12 12 17 19 18 11 12 13 14 12 12
9 10 10 11 11 11 11 11 11 11 12 13 11 18 20 19 13 12 13 13 13 12
10 11 11 11 12 12 11 11 11 10 11 12 13 18 20 17 11 12 14 12 12 12
11 10 11 13 13 12 11 13 11 13 12 14 14 17 19 16 9 14 11 11 11 13
11 12 12 12 11 12 12 13 12 14 12 12 11 13 20 19 10 11 11 10 10 9
Wind_Direction
39 38 26 5 339 320 313 307 309 295 286 282 281 282 276 264 250 237 234 238 234 239
42 39 29 19 3 352 339 333 320 313 303 296 290 284 283 273 271 249 241 238 242 241
38 34 30 28 17 4 351 344 335 330 319 312 304 296 289 279 277 270 264 260 252 246
31 27 25 19 9 1 350 349 343 338 327 317 309 302 293 284 280 275 272 265 261 258
25 19 18 10 1 353 343 339 338 336 329 322 315 309 300 293 286 281 278 277 275 272
19 11 7 357 347 344 340 337 336 331 325 318 313 308 302 296 291 286 280 278 274 276
10 359 353 345 341 339 338 333 333 330 323 318 313 306 304 302 295 288 283 281 275 271
347 340 335 331 328 328 326 326 326 323 322 318 313 308 319 310 302 296 291 283 277 275
336 326 325 326 325 321 319 318 320 319 316 313 308 308 305 302 297 293 289 288 286 278
333 331 332 325 324 323 323 320 317 313 310 306 304 301 302 304 295 290 286 287 289 288
341 333 330 328 323 322 321 314 309 302 299 297 295 297 300 301 293 287 283 281 282 281
338 330 327 325 325 322 318 312 306 299 297 291 292 300 301 306 297 286 285 284 278 276
328 322 317 315 312 307 303 298 299 296 291 286 284 296 301 307 293 292 291 290 287 276
317 312 303 299 298 298 300 298 297 292 292 286 280 291 301 303 293 289 294 292 296 292